Location: Bartlow
(52.0833°N, 0.3167°E)
Time: 04:39:37
(UTC+00:00)

USA 281 - Pass Details

Date: 26 September 2023
Orbit: 1077 x 1081 km, 106.0° (Epoch: 19 November)

Event Time Altitude Azimuth Distance (km) Brightness Sun altitude
Rises 03:22:03 0° 26° (NNE) 3,893 7.0 -22.7°
Reaches altitude 10° 03:24:38 10° 21° (NNE) 2,934 6.2 -22.3°
Maximum altitude 03:30:56 51° 309° (NW) 1,345 3.5 -21.5°
Enters shadow 03:33:15 36° 258° (WSW) 1,652 3.7 -21.2°
